CamptonHillsWeather.com

Find the Weather for any City, State  
or Zipcode, or Country:

Campton Hills, IL Weather
Local Radar

Local Radar

Graphs, Details
Graphs and Gauges
Detailed Weather
Detailed Reports
Ajax Version (old)
Central Kane Co Summary
Davis Current Weather Graphs
Davis 24 Hour Weather History

CW3778 Data

Weather Underground
Maps
Temperature
Heat Index
Windchill
Humidity
Radar
Dew Point
Wind
Visibility
Visible Satellite
Satellite
Fronts
Snow Depth
Jet Stream
Flight Rules
Forecast Maps
Temperature Forecast
Maximum Temperature Forecast
Minimum Temperature Forecast
Dewpoint Forecast
Prevalent Weather
12Hr Probability of Precip.
Sky Cover
Health Maps
UV Forecast
Air Quality
Peak Air Quality Index
Weather Station
Davis Instruments Vantage Pro
Current Conditions [Select Refresh to Update]

Updated: 4:25am on 11/27/14

(location)
Currently:
20.8F

Clear
Overcast

High: 23.1 F< 
(12:00am
Low: 17.7 F 
(2:08am)
Wind: NW 2 mph
Light Air
Gust: 7 mph
Today's High Wind: 9 mph (3:57am)
Humidity: 92%
Pressure: 30.31 in  (Steady
Pressure Rate: 0.007 in/hr
Dew Point: 18.8F
Wind Chill: 18.7 F
Heat Index (feels like): 26.7 F
Comfort Level: Uncomfortably Cold
Temperature Rate:  1.27F/hr
 
5 Day Forecast
 
Thu Fri Sat Sun Mon
Clear Clear Clear Clear Clear
Partly Cloudy Mostly Cloudy Partly Cloudy Mostly Cloudy Mostly Cloudy
23 36 48 55 32
10 27 43 18 19

Records and Normals
 
Temperature Forecast Normal Record
High 23 0 0
(0)
Low 10 0 0
(0)
 
Links
 
 
Weather Advisories
No Advisories
Full Advisory Text...
Weather Map

Web Cam

Almanac
 
Sunrise:  
6:58am
Moonrise: 
11:10am

Moon Phase:
26%

Sunset: 
4:25pm
Moonset:  
10:07pm
 Star Chart...
Rainfall Totals
Hourly Rain 0.00 in
Daily Rain: 0.00 in
Monthly Rain: 1.10 in
Yearly Rain: 35.22 in
Normal Rain, month to date: 0.00 in
Normal Rain, year to date: 0.00 in
Link to Village of Campton Hills Map

Link to Counties of Illinois Map

Local Weather Exchange Network
Station ID City 
(Click for Map Location)
Neighborhood 
(Click for History)
Last Update (Date & Time) Temperature
 ()
Dew
Point ()
Humidity 
(%)
Wind 
(mph)
from the Wind Gust 
(mph) 
Pressure(in) Hourly
Rain(in)
KILSTCHA10 St. Charles Hunt Club 11/27 04:19:37 20.8 18.0 88 0 NNE 0 29.80 0.00
KILCAMPT3 Campton Hills Campton Hills 11/27 04:19:57 20.8 19.0 91 0 WNW 5 30.32 0.00
KILGENEV6 Geneva Dover Ridge 11/27 04:20:01 21.4 19.0 89 8 NNW 8 30.28 0.00
KILSTCHA8 St. Charles Ronzheimer Ave. & S. Tyler Rd. 11/27 04:20:01 20.2 18.0 89 1 NNW 4 30.28 0.00
KILGENEV3 Geneva Mill Creek (NE) 11/27 04:20:01 21.9 19.0 90 6 NW 9 30.37 0.00
KILSTCHA1 St Charles CamptonHillsWeather.com Central Kane County 11/27 04:19:57 20.7 19.0 92 2 NW 7 30.31 0.00
KILSOUTH5 South Elgin Concord Park 11/27 04:08:12 20.1 20.0 99 3 SSW 0 30.00 0.00
KILGENEV2 Geneva Mill Creek 11/27 04:06:51 21.0 18.0 89 3 NW 6 30.25 0.00
KILBATAV1 Batavia Tri-Cities on the Fox River 11/27 04:18:20 21.1 16.0 79 0 NNW 4 30.31 0.00
KILELBUR5 Elburn Prairie Highlands 11/27 04:15:16 22.0 20.0 93 4 NW 11 30.30 0.00
KILBATAV3 Batavia West Batavia 11/27 04:09:31 20.3 18.0 90 2 NNW 0 30.27 0.00
KILELBUR6 Elburn Columbine Square 11/27 04:11:32 20.1 18.0 92 0 NW 3 30.25 0.00
KILBATAV5 Batavia Fermi National Accelerator Laboratory 11/27 04:15:04 20.8 18.0 90 7 WNW 9 30.25 0.00
KILELBUR8 Elburn Columbine 11/27 04:09:48 20.0 18.0 93 6 West 13 30.27 0.00
KILWESTC5 West Chicago THEBROWNHOUSE.ORG 11/27 04:19:58 18.6 13.0 77 0 North 0 30.21 0.00
KILWESTC8 West Chicago Ingalton Hills Estates 11/27 04:19:58 19.0 17.0 93 6 SW 6 30.48 0.00
KILNORTH11 North Aurora Waterford Oaks 11/27 04:19:56 21.1 19.0 90 5 WNW 7 30.30 0.00
KILELGIN10 Elgin Wing Park 11/27 04:17:25 21.2 17.0 82 0 ESE 0 29.44 0.00
KILELGIN14 Elgin Elgin, IL 11/27 04:19:57 21.0 18.0 89 2 NW 4 30.17 0.00
KILCAROL5 Carol Stream Stonehenge Court 11/27 04:15:23 21.7 5.0 47 0 North 0 30.27 0.00
KILGILBE2 Gilberts Gilberts, IL 11/27 04:19:53 20.3 19.0 93 4 West 6 30.35 0.00
KILELGIN11 Elgin Trout Park 11/27 02:02:45 17.8 12.0 76 6 NW 8 30.22 0.00
KILWINFI3 Winfield Fredericksburg Farm 11/27 04:20:02 18.7 16.0 87 1 WSW 2 30.20 0.00
KILWINFI2 Winfield Winfield Heights (SarahNet) 11/27 04:19:55 21.0 18.0 87 0 NNW 2 30.29 0.00
KILSLEEP3 Sleepy Hollow SLEEPY HOLLOW 11/27 04:19:55 20.5 17.0 87 1 West 2 29.73 0.00
KILCAROL6 Carol Stream Merbach Ct 11/27 04:19:59 21.4 18.0 86 3 West 5 29.86 0.00
KILSLEEP2 Sleepy Hollow Sleepy Hollow Manor 11/27 04:14:14 19.9 18.0 94 3 NNW 0 30.16 0.00
KILWARRE2 Warrenville meso_neigh28 11/27 04:19:54 21.0 18.0 89 3 WNW 5 30.28 0.00
KILSTREA12 Streamwood Petri Dish 11/27 04:08:28 20.7 17.0 84 5 WNW 0 30.28 0.00
KILHANOV2 Hanover Park meso_neigh30 11/27 04:19:04 20.7 15.0 79 4 SW 7 30.28 0.00
KILWHEAT8 Wheaton Wheaton Sanitary District 11/27 04:18:35 22.6 20.0 90 0 West 3 30.29 0.00
KILWHEAT5 Wheaton N9ABF - West Wheaton 11/27 04:14:54 21.5 18.0 85 4 NW 0 30.21 0.00
KILSCHAU9 Schaumburg Schaumburg West 11/27 04:20:02 20.7 20.0 99 2 NW 8 30.10 0.00
KILEASTD2 East Dundee Rock Road Industrial Park 11/27 04:15:22 20.9 16.0 79 5 NNW 9 30.21 0.00
KILCARPE6 Carpentersville Carpentersville 11/27 04:19:38 20.3 19.0 93 0 NW 0 29.35 0.00
KILWHEAT11 Wheaton Wheaton SW Orth Ct 11/27 04:20:01 24.5 19.0 78 0 NNW 1 30.34 0.00
KILNAPER19 Naperville Brookdale Lakes 11/27 04:20:02 21.4 18.0 88 2 NW 4 30.22 0.00
KILCARPE5 Carpentersville Cville WWTF 11/27 04:14:23 22.4 20.0 91 4 NW 6 30.29 0.00
KDPA Chicago DuPage Official Station 11/27 03:52:00 20.0 16.0 85 8 NW --- 30.27 ---
KARR Aurora Official Station 11/27 03:52:00 22.0 16.0 78 8 WNW --- 30.29 ---
Full Advisory Text
No Warnings

Ambient Weather and Weather Underground
 Never base important decisions on this or any weather information obtained from the Internet
Updated Automatically by Ambient Weather's Virtual Weather Station  V13.01